Location: Borovka
(49.7741°N, 14.5280°E)
Time: 13:44:41
(UTC+00:00)

ESTCUBE 1 - Pass Details

Date: 18 March 2026
Orbit: 620 x 631 km, 97.7° (Epoch: 18 April)

Event Time Altitude Azimuth Distance (km) Brightness Sun altitude
Exits shadow 19:41:22 82° 183° (S) 641 ? -23.9°
Maximum altitude 19:41:33 88° 258° (WSW) 636 ? -24.0°
Drops below altitude 10° 19:45:58 10° 346° (NNW) 2,020 ? -24.6°
Sets 19:48:11 0° 347° (NNW) 2,934 ? -24.9°
